[[{"header":{"parameterUnit":"m.s-1","parameterCategory":1,"la1":30.2992,"la2":30.254,"lo1":-89.0895,"lo2":-89.0443,"dy":0.0025,"dx":0.0025,"nx":19,"ny":19,"refTime":"2026-03-08T03:00:00:Z","depth":0,"parameterNumber":2,"parameterNumberName":"U-component_of_WINDS"},"data":[0,0,0,-3.5764,-3.5766,-3.5863,-3.5863,-3.5979,-3.598,0,0,0,0,0,0,0,0,0,0,0,-3.573,-3.573,-3.5764,-3.5766,-3.5863,-3.5863,-3.5979,-3.598,0,0,0,0,0,0,0,0,0,0,0,-3.5729,-3.573,-3.5731,-3.5766,-3.5863,-3.5863,-3.5979,-3.5909,0,0,0,0,0,0,0,0,0,0,-3.5816,-3.5779,-3.573,-3.5731,-3.5767,-3.5863,-3.5863,-3.5905,-3.5913,-3.5932,0,-3.5946,0,-3.5965,-3.5987,-3.5988,0,0,0,-3.577,-3.5772,-3.5804,-3.5731,-3.5768,-3.5862,-3.582,-3.591,-3.5918,-3.5942,-3.5948,-3.5952,-3.5967,-3.5988,-3.5989,-3.6081,-3.6081,0,0,-3.5765,-3.5744,-3.5797,-3.5809,-3.5793,-3.5817,-3.5823,-3.5915,-3.5921,-3.5948,-3.5955,-3.5969,-3.5989,-3.599,-3.6081,-3.6081,0,0,0,-3.5747,-3.574,-3.5769,-3.5804,-3.5822,-3.582,-3.5827,-3.5916,-3.5928,-3.5957,-3.597,-3.5989,-3.5991,-3.6081,-3.6081,-3.6071,0,0,0,-3.5744,-3.5729,-3.5767,-3.5755,-3.582,-3.587,-3.5826,-3.5921,-3.5932,-3.597,-3.5989,-3.5992,-3.6081,-3.6081,-3.6071,-3.6069,0,0,0,-3.5725,-3.5727,-3.5739,-3.5754,-3.5794,-3.5869,-3.5886,-3.5924,-3.5941,-3.5988,-3.5992,-3.608,-3.6081,-3.6071,-3.6069,-3.6087,0,0,0,-3.5699,-3.5729,-3.5739,-3.5778,-3.5793,-3.5863,-3.5886,-3.5938,-3.5978,-3.599,-3.6081,-3.6081,-3.6071,-3.6069,-3.6086,-3.6097,-3.61,0,0,-3.5725,-3.5732,-3.5756,-3.5768,-3.583,-3.585,-3.5911,-3.5967,-3.5991,-3.605,-3.6053,-3.6071,-3.6069,-3.6087,-3.6126,-3.6127,0,0,0,-3.5757,-3.5775,-3.5796,-3.5832,-3.5876,-3.5914,-3.5963,-3.5985,-3.6036,-3.6017,-3.6084,-3.6083,-3.6095,-3.6101,-3.6102,-3.6113,-3.6083,-3.6083,-3.6083,-3.5762,-3.5792,-3.5835,-3.5877,-3.5912,-3.5964,-3.5995,-3.6033,-3.6052,-3.6068,-3.6085,-3.6105,-3.6111,-3.6112,-3.6123,-3.6094,-3.6094,-3.6094,-3.6094,-3.5802,-3.583,-3.5857,-3.5908,-3.594,-3.5983,-3.6035,-3.6048,-3.6094,-3.6094,-3.6106,-3.6101,-3.6113,-3.6124,-3.6094,-3.6094,-3.6094,-3.6094,-3.6094,-3.5807,-3.5825,-3.5851,-3.5908,-3.5949,-3.5992,-3.6034,-3.6063,-3.609,-3.6101,-3.6122,-3.6122,-3.6125,-3.611,-3.611,-3.611,-3.611,-3.611,-3.611,-3.58,-3.583,-3.5862,-3.5913,-3.5941,-3.5981,-3.6035,-3.6064,-3.6103,-3.612,-3.612,-3.6138,-3.611,-3.6101,-3.6111,-3.6111,-3.6111,-3.6111,-3.611,-3.5826,-3.5825,-3.5874,-3.5902,-3.5965,-3.6004,-3.604,-3.6097,-3.6125,-3.6145,-3.6162,-3.6137,-3.6145,-3.6144,-3.6137,-3.6156,-3.6156,-3.6156,-3.6156,-3.5829,-3.5836,-3.5893,-3.5936,-3.5982,-3.602,-3.6076,-3.612,-3.6165,-3.6184,-3.6187,-3.618,-3.6178,-3.6188,-3.6186,-3.6179,-3.6209,-3.6209,-3.6209,-3.5846,-3.5859,-3.59,-3.5943,-3.5995,-3.6039,-3.6093,-3.6142,-3.6194,-3.6211,-3.62,-3.6198,-3.6188,-3.6184,-3.6198,-3.6194,-3.6183,0,0]},{"header":{"parameterUnit":"m.s-1","parameterCategory":1,"la1":30.2992,"la2":30.254,"lo1":-89.0895,"lo2":-89.0443,"dy":0.0025,"dx":0.0025,"nx":19,"ny":19,"refTime":"2026-03-08T03:00:00:Z","depth":0,"parameterNumber":3,"parameterNumberName":"V-component_of_WINDS"},"data":[0,0,0,4.219,4.2189,4.2136,4.2136,4.209,4.2089,0,0,0,0,0,0,0,0,0,0,0,4.2219,4.2219,4.219,4.2189,4.2136,4.2136,4.209,4.2089,0,0,0,0,0,0,0,0,0,0,0,4.2219,4.2219,4.2219,4.2189,4.2136,4.2136,4.209,4.2122,0,0,0,0,0,0,0,0,0,0,4.217,4.2209,4.2219,4.2219,4.2189,4.2136,4.2136,4.2123,4.212,4.2123,0,4.213,0,4.2109,4.2088,4.2088,0,0,0,4.2179,4.2212,4.2186,4.2219,4.2188,4.2136,4.2157,4.2121,4.2117,4.2119,4.2129,4.2126,4.2108,4.2088,4.2087,4.2144,4.2144,0,0,4.2182,4.2216,4.2189,4.2184,4.2194,4.2159,4.2156,4.2119,4.2131,4.2128,4.2125,4.2108,4.2087,4.2087,4.2143,4.2144,0,0,0,4.2197,4.2219,4.2193,4.2187,4.2176,4.2158,4.2154,4.2133,4.2121,4.2124,4.2107,4.2087,4.2087,4.2142,4.2143,4.2216,0,0,0,4.2198,4.2227,4.2195,4.2215,4.2177,4.2154,4.2169,4.2124,4.2119,4.2107,4.2087,4.2087,4.2141,4.2143,4.2212,4.2245,0,0,0,4.2218,4.223,4.2227,4.2217,4.2196,4.2153,4.214,4.2122,4.2109,4.2088,4.2087,4.214,4.2142,4.2209,4.2239,4.2273,0,0,0,4.2248,4.2289,4.2228,4.2267,4.2197,4.2199,4.2139,4.2138,4.2129,4.2087,4.2141,4.2143,4.2208,4.2236,4.227,4.231,4.2329,0,0,4.2319,4.2299,4.2319,4.2263,4.2286,4.2204,4.2236,4.2193,4.2158,4.2151,4.2151,4.2213,4.2239,4.2272,4.2419,4.2435,0,0,0,4.2353,4.2369,4.2367,4.2361,4.2331,4.2309,4.2258,4.2242,4.2235,4.2162,4.2232,4.2246,4.2264,4.2282,4.2295,4.231,4.2152,4.2152,4.2151,4.2503,4.2459,4.2492,4.2443,4.2437,4.2386,4.2378,4.2349,4.2303,4.2321,4.2319,4.2414,4.2436,4.2446,4.2462,4.2334,4.2334,4.2334,4.2335,4.2606,4.2623,4.2565,4.2576,4.2529,4.2537,4.2491,4.2459,4.2461,4.241,4.2424,4.2376,4.2464,4.2476,4.234,4.2339,4.2338,4.2338,4.2337,4.2702,4.2703,4.2684,4.2674,4.267,4.2618,4.2624,4.258,4.2538,4.2552,4.2548,4.2546,4.2542,4.2552,4.2553,4.2553,4.2553,4.2554,4.2554,4.281,4.2787,4.2798,4.2773,4.2765,4.2749,4.27,4.2691,4.267,4.2638,4.2638,4.2594,4.248,4.2454,4.2559,4.2558,4.2557,4.2557,4.2557,4.2935,4.29,4.2918,4.2911,4.2879,4.2881,4.2825,4.2811,4.2797,4.2803,4.2755,4.2677,4.2653,4.2642,4.2621,4.2762,4.2762,4.2762,4.2762,4.3019,4.3002,4.3012,4.3005,4.2991,4.2944,4.2967,4.2931,4.2887,4.2877,4.2849,4.2816,4.2807,4.2788,4.2774,4.2754,4.2926,4.2926,4.2926,4.3095,4.3076,4.3105,4.3063,4.3036,4.3014,4.3036,4.303,4.2972,4.2932,4.2868,4.2861,4.2808,4.2792,4.2752,4.2731,4.2692,0,0]}]]